Weather History for KFFO - August, 2013

Change the Weather History Date:

Friday, August 2, 2013

  Actual Average Record
Temperature  
Mean Temperature 69 °F -  
Max Temperature 82 °F 82 °F 95 °F (2005)
Min Temperature 56 °F 61 °F 53 °F (1998)
Cooling Degree Days 4    
Growing Degree Days 19 (Base 50)    
Moisture  
Dew Point 62 °F    
Average Humidity 73    
Maximum Humidity 95    
Minimum Humidity 50    
Precipitation  
Precipitation 0.00 in - - ()
Sea Level Pressure  
Sea Level Pressure 29.99 in    
Wind  
Wind Speed 5 mph (South)    
Max Wind Speed 17 mph    
Max Gust Speed 22 mph    
Visibility 10 miles    
Events      
Averages and records for this station are not official NWS values.
T = Trace of Precipitation, MM = Missing Value Source: NWS Daily Summary

Daily Weather History Graph

Daily Weather History Graph

Search for Another Location

Airport or City:

Trip Planner

Search our weather history database for the weather conditions in past years. The results will help you decide how hot, cold, wet, or windy it might be!

Date:

Astronomy

Aug. 02, 2013 Rise Set
Actual Time 6:36 AM EDT 8:48 PM EDT
Civil Twilight 6:06 AM EDT 9:18 PM EDT
Nautical Twilight 5:29 AM EDT 9:54 PM EDT
Astronomical Twilight 4:48 AM EDT 10:35 PM EDT
Moon 2:56 AM EDT (8/2) 5:45 PM EDT (8/2)
Length of Visible Light 15h 12m
Length of Day
14h 11m
Waning Crescent, 16% of the Moon is Illuminated
Aug 2
Waning Crescent
Aug 6
New
Aug 14
First Quarter
Aug 20
Full
Aug 28
Last Quarter

Hourly Weather History & Observations

Time (EDT) Temp. Heat Index Dew Point Humidity Pressure Visibility Wind Dir Wind Speed Gust Speed Precip Events Conditions
12:58 AM 62.8 °F - 61.2 °F 94% 29.98 in 10.0 mi SSW 3.5 mph - N/A   Clear
1:58 AM 63.7 °F - 60.6 °F 90% 29.99 in 10.0 mi Calm Calm - N/A   Clear
2:58 AM 63.1 °F - 59.9 °F 89% 29.97 in 10.0 mi Variable 1.2 mph - N/A   Partly Cloudy
3:58 AM 60.3 °F - 58.1 °F 93% 29.98 in 10.0 mi South 3.5 mph - N/A   Clear
4:58 AM 59.4 °F - 57.2 °F 93% 29.98 in 10.0 mi Calm Calm - N/A   Clear
5:58 AM 56.7 °F - 55.2 °F 95% 30.00 in 10.0 mi Calm Calm - N/A   Clear
6:58 AM 57.2 °F - 55.2 °F 93% 30.00 in 10.0 mi Calm Calm - N/A   Clear
7:58 AM 60.8 °F - 58.1 °F 91% 30.01 in 10.0 mi Calm Calm - N/A   Clear
8:58 AM 64.6 °F - 59.9 °F 85% 30.01 in 10.0 mi South 1.2 mph - N/A   Clear
9:45 AM 68.0 °F - 60.8 °F 78% 30.01 in 10.0 mi Calm Calm - N/A   Mostly Cloudy
9:58 AM 69.8 °F - 60.8 °F 73% 30.01 in 10.0 mi Calm Calm - N/A   Mostly Cloudy
10:58 AM 74.7 °F - 57.7 °F 55% 30.01 in 10.0 mi SE 6.9 mph - N/A   Mostly Cloudy
11:58 AM 75.7 °F - 58.6 °F 55% 30.02 in 10.0 mi Variable 6.9 mph - N/A   Scattered Clouds
12:58 PM 76.6 °F - 59.2 °F 55% 30.02 in 10.0 mi South 8.1 mph - N/A   Scattered Clouds
1:58 PM 78.8 °F - 58.6 °F 50% 30.01 in 10.0 mi Variable 5.8 mph - N/A   Mostly Cloudy
2:58 PM 81.0 °F 81.7 °F 60.8 °F 50% 30.00 in 10.0 mi South 11.5 mph 21.9 mph N/A   Scattered Clouds
3:58 PM 81.5 °F 82.5 °F 62.4 °F 52% 29.99 in 10.0 mi South 17.3 mph - N/A   Partly Cloudy
4:58 PM 82.0 °F 82.8 °F 61.9 °F 50% 29.98 in 10.0 mi South 16.1 mph - N/A   Clear
5:58 PM 79.9 °F - 62.1 °F 54% 29.96 in 10.0 mi South 17.3 mph - N/A   Clear
6:58 PM 78.4 °F - 62.8 °F 58% 29.95 in 10.0 mi South 15.0 mph - N/A   Partly Cloudy
7:57 PM 77.0 °F - 64.4 °F 65% 29.96 in 10.0 mi South 15.0 mph - N/A   Light Drizzle
7:58 PM 77.2 °F - 63.5 °F 63% 29.96 in 10.0 mi South 16.1 mph - 0.00 in   Light Drizzle
8:07 PM 75.2 °F - 64.4 °F 69% 29.97 in 10.0 mi South 10.4 mph - N/A   Scattered Clouds
8:58 PM 75.2 °F - 63.9 °F 68% 29.97 in 10.0 mi South 10.4 mph - 0.00 in   Overcast
9:11 PM 75.2 °F - 64.4 °F 69% 29.98 in 10.0 mi South 10.4 mph - N/A   Light Drizzle
9:22 PM 73.4 °F - 64.4 °F 73% 29.98 in 10.0 mi South 10.4 mph - N/A   Scattered Clouds
9:24 PM 73.4 °F - 64.4 °F 73% 29.98 in 10.0 mi South 10.4 mph - N/A   Light Drizzle
9:41 PM 73.4 °F - 66.2 °F 78% 29.98 in 10.0 mi WSW 9.2 mph - N/A   Scattered Clouds
9:58 PM 72.9 °F - 64.9 °F 76% 29.98 in 10.0 mi South 6.9 mph - 0.00 in   Mostly Cloudy
10:11 PM 73.4 °F - 64.4 °F 73% 29.99 in 10.0 mi SSW 9.2 mph - N/A   Light Drizzle
10:27 PM 73.4 °F - 66.2 °F 78% 29.98 in 10.0 mi South 6.9 mph - N/A   Mostly Cloudy
10:58 PM 72.5 °F - 65.5 °F 79% 29.97 in 10.0 mi South 6.9 mph - 0.00 in   Overcast
11:58 PM 73.4 °F - 65.3 °F 76% 29.97 in 10.0 mi South 5.8 mph - N/A   Overcast